Overview Statistics Trail Chart Weather Telemetry Raw packets
 

This is the latest recevied weather packets stored in our database for station/object KG5MMT-12. If no packets are shown the sender has not sent any weather packets the latest 10 day(s).

<< 65 66 67 68 69 70 71 >>
Time Temp. Humidity Pressure Rain* Wind** Luminosity Snow
1788232749 18.89° C 58% 0 hPa 0 mm - - -
1788232449 18.89° C 57% 0 hPa 0 mm - - -
1788232149 19.44° C 57% 0 hPa 0 mm - - -
1788231849 19.44° C 55% 0 hPa 0 mm - - -
1788231549 19.44° C 54% 0 hPa 0 mm - - -
1788231249 19.44° C 53% 0 hPa 0 mm - - -
1788230949 19.44° C 55% 0 hPa 0 mm - - -
1788230649 18.89° C 58% 0 hPa 0 mm - - -
1788230349 18.33° C 62% 0 hPa 0 mm - - -
1788230049 17.78° C 67% 0 hPa 0 mm - - -
1788229749 17.78° C 75% 0 hPa 0 mm - - -
1788229449 17.22° C 79% 0 hPa 0 mm - - -
1788229149 17.22° C 79% 0 hPa 0 mm - - -
1788228849 17.78° C 77% 0 hPa 0.25 mm - - -
1788228549 17.78° C 73% 0 hPa 0.25 mm - - -
1788228249 17.78° C 70% 0 hPa 0.25 mm - - -
1788227949 17.22° C 72% 0 hPa 0.25 mm - - -
1788227649 16.67° C 72% 0 hPa 0.25 mm - - -
1788227349 16.67° C 81% 0 hPa 0.25 mm - - -
1788227049 16.11° C 79% 0 hPa 0.25 mm - - -
1788226749 16.67° C 80% 0 hPa 0.25 mm - - -
1788226449 16.11° C 80% 0 hPa 0.25 mm - - -
1788226149 16.11° C 81% 0 hPa 0.25 mm - - -
1788225849 16.11° C 82% 0 hPa 0.25 mm - - -
1788225549 16.11° C 82% 0 hPa 0.25 mm - - -

* Rain latest hour (hover to see other rain measurements)
** Current wind speed in m/s (hover to see current wind gust speed)